Location: Asbacherhof
(48.8543°N, 10.7903°E)
Time: 22:10:48
(UTC+00:00)

USA 215 - Pass Details

Date: 26 May 2022
Orbit: 1099 x 1108 km, 123.0° (Epoch: 10 June)

Event Time Altitude Azimuth Distance (km) Brightness Sun altitude
Rises 01:59:19 0° 77° (ENE) 3,919 7.1 -10.9°
Reaches altitude 10° 02:01:54 10° 71° (ENE) 2,962 6.5 -10.7°
Maximum altitude 02:08:00 44° 2° (N) 1,489 4.4 -10.0°
Drops below altitude 10° 02:14:07 10° 294° (WNW) 2,968 5.3 -9.3°
Sets 02:16:42 0° 288° (WNW) 3,928 5.9 -9.1°
